| time (UTC) | temp F | wind direction | speed knots | gust knots | rain 1hr in | rain 24hr in | rain mn in | humidity % | barometer mb |
| 20260505011554 | 49 | 162 | 3.5 | 5.2 | 0.00 | 0.00 | 0.00 | 87 | 1006.5 |
| 20260505010043 | 49 | 205 | 2.6 | 5.2 | 0.00 | 0.00 | 0.00 | 86 | 1006.3 |
| 20260505004543 | 49 | 168 | 2.6 | 5.2 | 0.00 | 0.00 | 0.00 | 87 | 1006.1 |
| 20260505003041 | 49 | 186 | 2.6 | 6.1 | 0.00 | 0.00 | 0.00 | 86 | 1005.9 |
| 20260505001540 | 49 | 169 | 3.5 | 5.2 | 0.00 | 0.00 | 0.00 | 85 | 1005.6 |
| 20260505000051 | 50 | 189 | 4.3 | 6.1 | 0.00 | 0.00 | 0.00 | 82 | 1005.6 |
| 20260504234546 | 51 | 165 | 4.3 | 6.1 | 0.00 | 0.00 | 0.00 | 80 | 1005.4 |
| 20260504233058 | 51 | 175 | 2.6 | 6.1 | 0.00 | 0.00 | 0.00 | 81 | 1005.1 |
| 20260504231540 | 51 | 197 | 1.7 | 4.3 | 0.00 | 0.00 | 0.00 | 80 | 1004.9 |
| 20260504230040 | 52 | 202 | 5.2 | 7.0 | 0.00 | 0.00 | 0.00 | 77 | 1004.8 |
| 20260504224540 | 54 | 198 | 4.3 | 7.8 | 0.00 | 0.00 | 0.00 | 73 | 1004.6 |
| 20260504223054 | 53 | 195 | 3.5 | 6.1 | 0.00 | 0.00 | 0.00 | 75 | 1004.5 |
| 20260504221538 | 53 | 205 | 5.2 | 8.7 | 0.00 | 0.00 | 0.00 | 76 | 1004.6 |
| 20260504220035 | 53 | 200 | 4.3 | 8.7 | 0.00 | 0.00 | 0.00 | 77 | 1004.5 |
| 20260504214533 | 54 | 192 | 4.3 | 7.0 | 0.00 | 0.00 | 0.00 | 74 | 1004.4 |
| 20260504213048 | 56 | 184 | 4.3 | 8.7 | 0.00 | 0.00 | 0.00 | 71 | 1004.4 |
| 20260504211535 | 57 | 205 | 6.1 | 8.7 | 0.00 | 0.00 | 0.00 | 67 | 1004.3 |
| 20260504210035 | 57 | 198 | 2.6 | 5.2 | 0.00 | 0.00 | 0.00 | 72 | 1004.2 |
| 20260504204540 | 57 | 189 | 0.0 | 5.2 | 0.00 | 0.00 | 0.00 | 69 | 1004.2 |
| 20260504203027 | 57 | 186 | 0.0 | 2.6 | 0.00 | 0.00 | 0.00 | 71 | 1004.3 |
| 20260504201523 | 56 | 192 | 0.0 | 2.6 | 0.00 | 0.00 | 0.00 | 72 | 1004.4 |
| 20260504200024 | 55 | 168 | 0.0 | 0.9 | 0.00 | 0.00 | 0.00 | 73 | 1004.5 |
| 20260504194520 | 54 | 191 | 2.6 | 3.5 | 0.00 | 0.00 | 0.00 | 75 | 1004.4 |
| 20260504193020 | 52 | 193 | 0.9 | 3.5 | 0.00 | 0.00 | 0.00 | 78 | 1004.6 |
| 20260504191518 | 51 | 191 | 0.0 | 2.6 | 0.00 | 0.00 | 0.00 | 80 | 1004.7 |
| 20260504190017 | 51 | 198 | 3.5 | 5.2 | 0.00 | 0.00 | 0.00 | 81 | 1004.8 |
| 20260504184516 | 51 | 221 | 2.6 | 5.2 | 0.00 | 0.00 | 0.00 | 80 | 1004.9 |
| 20260504183016 | 51 | 204 | 2.6 | 4.3 | 0.00 | 0.00 | 0.00 | 82 | 1004.8 |
| 20260504181516 | 52 | 177 | 2.6 | 7.8 | 0.00 | 0.00 | 0.00 | 79 | 1004.9 |
| 20260504180018 | 52 | 188 | 6.1 | 9.6 | 0.00 | 0.00 | 0.00 | 76 | 1004.8 |
| 20260504174517 | 54 | 180 | 4.3 | 7.8 | 0.00 | 0.00 | 0.00 | 73 | 1004.7 |
| 20260504173015 | 52 | 207 | 8.7 | 13.9 | 0.00 | 0.00 | 0.00 | 77 | 1004.6 |
| 20260504171513 | 51 | 197 | 11.3 | 15.6 | 0.00 | 0.00 | 0.00 | 77 | 1004.6 |
| 20260504150107 | 52 | 188 | 9.6 | 11.3 | 0.00 | 0.00 | 0.00 | 73 | 1006.0 |
| 20260504081551 | 40 | 274 | 0.0 | 0.0 | 0.00 | 0.03 | 0.00 | 76 | 1007.1 |
| 20260504044541 | 39 | 30 | 0.0 | 0.0 | 0.00 | 0.03 | 0.00 | 78 | 1007.0 |
| 20260504043030 | 39 | 30 | 0.0 | 0.0 | 0.00 | 0.03 | 0.00 | 77 | 1007.0 |
| 20260504041529 | 40 | 30 | 0.0 | 0.0 | 0.00 | 0.03 | 0.00 | 77 | 1007.1 |
| 20260504040031 | 40 | 30 | 0.0 | 0.0 | 0.00 | 0.03 | 0.00 | 76 | 1006.9 |
| 20260504034524 | 41 | 30 | 0.0 | 0.0 | 0.00 | 0.03 | 0.03 | 75 | 1006.8 |
| 20260504033024 | 41 | 30 | 0.0 | 0.0 | 0.00 | 0.03 | 0.03 | 74 | 1006.7 |
| 20260504031524 | 41 | 30 | 0.0 | 0.9 | 0.00 | 0.03 | 0.03 | 72 | 1006.6 |
| 20260504030022 | 42 | 29 | 0.0 | 0.9 | 0.00 | 0.03 | 0.03 | 70 | 1006.6 |
| 20260504024519 | 43 | 29 | 0.0 | 0.9 | 0.00 | 0.03 | 0.03 | 68 | 1006.6 |
| 20260504023017 | 43 | 26 | 0.0 | 0.0 | 0.00 | 0.03 | 0.03 | 67 | 1006.5 |
| 20260504021517 | 44 | 25 | 0.0 | 0.0 | 0.00 | 0.03 | 0.03 | 64 | 1006.5 |
| 20260504020018 | 45 | 51 | 0.0 | 1.7 | 0.00 | 0.03 | 0.03 | 62 | 1006.4 |
| 20260504014516 | 46 | 309 | 0.0 | 2.6 | 0.00 | 0.03 | 0.03 | 60 | 1006.3 |
| 20260504013015 | 46 | 46 | 0.0 | 3.5 | 0.00 | 0.03 | 0.03 | 59 | 1006.2 |